This demonstration page uses our WeatherBlox Daily Observations layout. Learn more.

Left ArrowRight Arrow

44.8408, -93.29828

Hourly Observations for September 7, 2017

Temp ( °F °C ) Dew Point ( °F °C ) Humidity (%) Winds ( mph kmh ) Pressure ( in mb ) Visibility ( mi km ) Precip ( " mm )
12:53 am 00:53 Partly Cloudy 53 11.7 47 8.3 80 80 Calm 30.07 1018 10 16 0.00 0.00
1:53 am 01:53 Mostly Clear 54 12.2 46 7.8 75 75 SW 5 7 30.05 1018 10 16 0.00 0.00
2:53 am 02:53 Mostly Clear 53 11.7 48 8.9 83 83 Calm 30.05 1018 10 16 0.00 0.00
3:53 am 03:53 Mostly Clear 50 10 48 8.9 93 93 SW 3 6 30.05 1018 10 16 0.00 0.00
4:53 am 04:53 Mostly Clear 50 10 47 8.3 89 89 SW 3 6 30.05 1018 10 16 0.00 0.00
5:53 am 05:53 Mostly Cloudy 50 10 46 7.8 86 86 SW 5 7 30.04 1017 10 16 0.00 0.00
6:53 am 06:53 Cloudy 50 10 46 7.8 86 86 SW 5 7 30.04 1017 10 16 0.00 0.00
7:53 am 07:53 Cloudy 51 10.6 46 7.8 83 83 SW 3 6 30.04 1017 10 16 0.00 0.00
8:53 am 08:53 Cloudy 54 12.2 46 7.8 75 75 VRB 5 7 30.04 1017 10 16 0.00 0.00
9:53 am 09:53 Cloudy 56 13.3 46 7.8 70 70 SW 7 11 30.03 1017 10 16 0.00 0.00
10:53 am 10:53 Cloudy 60 15.6 47 8.3 62 62 SSW 7 11 30.02 1017 10 16 0.00 0.00
11:53 am 11:53 Mostly Cloudy 64 17.8 49 9.4 58 58 SW 10 17 30.00 1016 10 16 0.00 0.00
12:53 pm 12:53 Mostly Cloudy 69 20.6 49 9.4 49 49 WSW 10 17 29.98 1015 10 16 0.00 0.00
1:53 pm 13:53 Mostly Cloudy 71 21.7 50 10 47 47 W 9 15 29.97 1015 10 16 0.00 0.00
2:53 pm 14:53 Mostly Cloudy 72 22.2 50 10 46 46 W 9 15 29.96 1015 10 16 0.00 0.00
3:53 pm 15:53 Mostly Cloudy 74 23.3 50 10 43 43 W 9 15 29.94 1014 10 16 0.00 0.00
4:53 pm 16:53 Mostly Cloudy 75 23.9 48 8.9 39 39 WNW 9 15 29.93 1014 10 16 0.00 0.00
5:53 pm 17:53 Mostly Cloudy 75 23.9 50 10 41 41 W 7 11 29.93 1013 10 16 0.00 0.00
6:53 pm 18:53 Mostly Cloudy 74 23.3 50 10 43 43 WSW 6 9 29.93 1014 10 16 0.00 0.00
7:53 pm 19:53 Mostly Cloudy 72 22.2 51 10.6 48 48 SW 5 7 29.93 1014 10 16 0.00 0.00
8:53 pm 20:53 Mostly Cloudy 67 19.4 55 12.8 66 66 SSE 5 7 29.95 1014 10 16 0.00 0.00
9:53 pm 21:53 Mostly Cloudy 67 19.4 54 12.2 63 63 VRB 3 6 29.95 1014 10 16 0.00 0.00
10:53 pm 22:53 Mostly Cloudy 63 17.2 56 13.3 78 78 E 7 11 29.97 1015 10 16 0.00 0.00
11:53 pm 23:53 Mostly Cloudy 59 15 55 12.8 87 87 ENE 10 17 30.01 1016 10 16 0.00 0.00

Powered by AerisWeather